Kokomo, IN

3:38 AM EST on February 25, 2017 (GMT -0500)
Kokomo Municipal

Weather History for KOKK - August, 2013

Change the Weather History Date:

Sunday, August 25, 2013

  Actual Average (KGUS) Record (KGUS)
Temperature  
Mean Temperature 72 °F -  
Max Temperature 87 °F 78 °F 91 °F (2003)
Min Temperature 57 °F 61 °F 56 °F (2008)
Cooling Degree Days 7    
Growing Degree Days 22 (Base 50)    
Moisture  
Dew Point 59 °F    
Average Humidity 67    
Maximum Humidity 94    
Minimum Humidity 38    
Precipitation  
Precipitation 0.00 in - - ()
Sea Level Pressure  
Sea Level Pressure 30.26 in    
Wind  
Wind Speed 3 mph (SW)    
Max Wind Speed 12 mph    
Max Gust Speed -    
Visibility 10 miles    
Events      
Averages and records for this station are not official NWS values.
T = Trace of Precipitation, MM = Missing Value Source: NWS Daily Summary

Daily Weather History Graph

Daily Weather History Graph

Search for Another Location

Airport or City:

Trip Planner

Search our weather history database for the weather conditions in past years. The results will help you decide how hot, cold, wet, or windy it might be!

Date:

Astronomy

Aug. 25, 2013 Rise Set
Actual Time 6:04 AM CDT 7:26 PM CDT
Civil Twilight 5:36 AM CDT 7:55 PM CDT
Nautical Twilight 5:02 AM CDT 8:29 PM CDT
Astronomical Twilight 4:26 AM CDT 9:05 PM CDT
Moon 9:56 PM CDT 11:07 AM CDT
Length of Visible Light 14h 18m
Length of Day
13h 21m
Waning Gibbous, 75% of the Moon is Illuminated
Aug 25
Waning Gibbous
Aug 28
Last Quarter
Sep 5
New
Sep 12
First Quarter
Sep 19
Full

Hourly Weather History & Observations

Time (CDT) Temp. Heat Index Dew Point Humidity Pressure Visibility Wind Dir Wind Speed Gust Speed Precip Events Conditions
12:15 AM 59.0 °F - 55.4 °F 88% 30.25 in 10.0 mi Calm Calm - N/A   Clear
12:35 AM 60.8 °F - 55.4 °F 82% 30.25 in 10.0 mi Calm Calm - N/A   Clear
12:55 AM 60.8 °F - 53.6 °F 77% 30.25 in 10.0 mi Calm Calm - N/A   Clear
1:15 AM 59.0 °F - 53.6 °F 82% 30.25 in 10.0 mi Calm Calm - N/A   Clear
1:35 AM 57.2 °F - 53.6 °F 88% 30.25 in 10.0 mi Calm Calm - N/A   Clear
1:55 AM 57.2 °F - 53.6 °F 88% 30.25 in 10.0 mi Calm Calm - N/A   Clear
2:15 AM 57.2 °F - 53.6 °F 88% 30.25 in 10.0 mi SE 3.5 mph - N/A   Clear
2:35 AM 57.2 °F - 53.6 °F 88% 30.26 in 10.0 mi Calm Calm - N/A   Clear
2:55 AM 57.2 °F - 53.6 °F 88% 30.26 in 10.0 mi SE 3.5 mph - N/A   Clear
3:15 AM 57.2 °F - 53.6 °F 88% 30.26 in 10.0 mi SE 3.5 mph - N/A   Clear
3:35 AM 57.2 °F - 53.6 °F 88% 30.27 in 10.0 mi SE 3.5 mph - N/A   Clear
3:55 AM 57.2 °F - 53.6 °F 88% 30.27 in 10.0 mi SSE 3.5 mph - N/A   Clear
4:15 AM 57.2 °F - 55.4 °F 94% 30.28 in 10.0 mi Calm Calm - N/A   Clear
4:35 AM 59.0 °F - 55.4 °F 88% 30.28 in 10.0 mi South 3.5 mph - N/A   Clear
4:55 AM 57.2 °F - 53.6 °F 88% 30.28 in 10.0 mi Calm Calm - N/A   Clear
5:15 AM 57.2 °F - 53.6 °F 88% 30.28 in 10.0 mi South 3.5 mph - N/A   Clear
5:35 AM 57.2 °F - 53.6 °F 88% 30.28 in 10.0 mi South 4.6 mph - N/A   Clear
5:55 AM 57.2 °F - 53.6 °F 88% 30.29 in 10.0 mi South 3.5 mph - N/A   Clear
6:15 AM 57.2 °F - 53.6 °F 88% 30.29 in 5.0 mi Calm Calm - N/A   Clear
6:35 AM 57.2 °F - 53.6 °F 88% 30.30 in 6.0 mi South 3.5 mph - N/A   Clear
6:55 AM 59.0 °F - 55.4 °F 88% 30.30 in 5.0 mi SSE 3.5 mph - N/A   Clear
7:15 AM 60.8 °F - 57.2 °F 88% 30.31 in 6.0 mi Calm Calm - N/A   Clear
7:35 AM 64.4 °F - 59.0 °F 83% 30.31 in 9.0 mi South 5.8 mph - N/A   Clear
7:55 AM 66.2 °F - 60.8 °F 83% 30.31 in 10.0 mi SSW 5.8 mph - N/A   Clear
8:15 AM 69.8 °F - 60.8 °F 73% 30.31 in 10.0 mi SSW 6.9 mph - N/A   Clear
8:35 AM 71.6 °F - 62.6 °F 73% 30.31 in 10.0 mi SSW 6.9 mph - N/A   Clear
8:55 AM 73.4 °F - 62.6 °F 69% 30.31 in 10.0 mi SSW 6.9 mph - N/A   Clear
9:15 AM 75.2 °F - 62.6 °F 65% 30.30 in 10.0 mi SSW 6.9 mph - N/A   Clear
9:35 AM 77.0 °F - 62.6 °F 61% 30.30 in 10.0 mi SSW 6.9 mph - N/A   Clear
9:55 AM 80.6 °F 81.8 °F 62.6 °F 54% 30.30 in 10.0 mi SSW 8.1 mph - N/A   Clear
10:15 AM 82.4 °F 83.4 °F 62.6 °F 51% 30.30 in 10.0 mi WSW 11.5 mph - N/A   Clear
10:35 AM 82.4 °F 83.4 °F 62.6 °F 51% 30.30 in 10.0 mi SW 11.5 mph - N/A   Clear
10:55 AM 84.2 °F 85.0 °F 62.6 °F 48% 30.30 in 10.0 mi WSW 9.2 mph - N/A   Clear
11:15 AM 84.2 °F 84.4 °F 60.8 °F 45% 30.30 in 10.0 mi SW 10.4 mph - N/A   Clear
11:35 AM 84.2 °F 84.4 °F 60.8 °F 45% 30.30 in 10.0 mi SW 10.4 mph - N/A   Clear
11:55 AM 84.2 °F 84.4 °F 60.8 °F 45% 30.29 in 10.0 mi SW 10.4 mph - N/A   Clear
12:15 PM 86.0 °F 85.4 °F 59.0 °F 40% 30.29 in 10.0 mi West 5.8 mph - N/A   Clear
12:35 PM 86.0 °F 85.4 °F 59.0 °F 40% 30.28 in 10.0 mi WSW 8.1 mph - N/A   Clear
12:55 PM 87.8 °F 87.6 °F 60.8 °F 40% 30.27 in 10.0 mi West 8.1 mph - N/A   Clear
1:15 PM 87.8 °F 87.6 °F 60.8 °F 40% 30.27 in 10.0 mi West 10.4 mph - N/A   Clear
1:35 PM 87.8 °F 87.1 °F 59.0 °F 38% 30.27 in 10.0 mi WSW 5.8 mph - N/A   Clear
1:55 PM 87.8 °F 87.1 °F 59.0 °F 38% 30.25 in 10.0 mi WSW 3.5 mph - N/A   Clear
2:15 PM 87.8 °F 87.6 °F 60.8 °F 40% 30.25 in 10.0 mi South 5.8 mph - N/A   Clear
2:35 PM 87.8 °F 87.1 °F 59.0 °F 38% 30.25 in 10.0 mi WSW 6.9 mph - N/A   Clear
2:55 PM 87.8 °F 87.1 °F 59.0 °F 38% 30.24 in 10.0 mi West 5.8 mph - N/A   Clear
3:15 PM 87.8 °F 87.6 °F 60.8 °F 40% 30.24 in 10.0 mi WNW 9.2 mph - N/A   Clear
3:35 PM 87.8 °F 87.1 °F 59.0 °F 38% 30.23 in 10.0 mi West 9.2 mph - N/A   Clear
3:55 PM 87.8 °F 87.6 °F 60.8 °F 40% 30.23 in 10.0 mi West 9.2 mph - N/A   Clear
4:15 PM 87.8 °F 87.6 °F 60.8 °F 40% 30.22 in 10.0 mi West 5.8 mph - N/A   Clear
4:35 PM 87.8 °F 87.6 °F 60.8 °F 40% 30.22 in 10.0 mi WSW 6.9 mph - N/A   Clear
4:55 PM 87.8 °F 87.6 °F 60.8 °F 40% 30.22 in 10.0 mi SW 5.8 mph - N/A   Clear
5:15 PM 87.8 °F 88.5 °F 62.6 °F 43% 30.21 in 10.0 mi SSW 5.8 mph - N/A   Clear
5:35 PM 86.0 °F 86.1 °F 60.8 °F 43% 30.21 in 10.0 mi SW 8.1 mph - N/A   Clear
5:55 PM 86.0 °F 86.1 °F 60.8 °F 43% 30.21 in 10.0 mi SSW 6.9 mph - N/A   Clear
6:15 PM 84.2 °F 85.0 °F 62.6 °F 48% 30.21 in 10.0 mi WSW 4.6 mph - N/A   Clear
6:35 PM 84.2 °F 85.0 °F 62.6 °F 48% 30.21 in 10.0 mi West 5.8 mph - N/A   Clear
6:55 PM 82.4 °F 83.4 °F 62.6 °F 51% 30.21 in 10.0 mi West 4.6 mph - N/A   Clear
7:15 PM 80.6 °F 81.8 °F 62.6 °F 54% 30.21 in 10.0 mi West 5.8 mph - N/A   Clear
7:35 PM 78.8 °F - 62.6 °F 57% 30.22 in 10.0 mi West 3.5 mph - N/A   Clear
7:55 PM 73.4 °F - 62.6 °F 69% 30.21 in 10.0 mi SW 3.5 mph - N/A   Clear
8:15 PM 71.6 °F - 62.6 °F 73% 30.22 in 9.0 mi Calm Calm - N/A   Clear
8:35 PM 69.8 °F - 62.6 °F 78% 30.21 in 10.0 mi SSW 3.5 mph - N/A   Clear
8:55 PM 68.0 °F - 60.8 °F 78% 30.22 in 7.0 mi Calm Calm - N/A   Clear
9:15 PM 66.2 °F - 60.8 °F 83% 30.23 in 10.0 mi SSE 3.5 mph - N/A   Clear
9:35 PM 66.2 °F - 60.8 °F 83% 30.23 in 10.0 mi Calm Calm - N/A   Clear
9:55 PM 66.2 °F - 60.8 °F 83% 30.24 in 10.0 mi Calm Calm - N/A   Clear
10:15 PM 64.4 °F - 60.8 °F 88% 30.23 in 10.0 mi South 3.5 mph - N/A   Clear
10:35 PM 64.4 °F - 60.8 °F 88% 30.24 in 10.0 mi Calm Calm - N/A   Clear
10:55 PM 64.4 °F - 60.8 °F 88% 30.23 in 10.0 mi South 4.6 mph - N/A   Clear
11:15 PM 64.4 °F - 59.0 °F 83% 30.24 in 10.0 mi South 4.6 mph - N/A   Clear
11:35 PM 64.4 °F - 59.0 °F 83% 30.24 in 10.0 mi SSE 3.5 mph - N/A   Clear
11:55 PM 64.4 °F - 59.0 °F 83% 30.23 in 10.0 mi South 4.6 mph - N/A   Clear